Preview of NWS' New Version of Forecast
This preview is not operational and should not be used for support decisions.

Regional Weather Roundup (RWR)

Issued by National Weather Service (NWS)

                            
000
ASUS46 KSEW 181010
RWRWA 

WASHINGTON REGIONAL WEATHER ROUNDUP
NATIONAL WEATHER SERVICE SEATTLE WA
300 AM PDT THU APR 18 2019

NOTE:"FAIR" INDICATES FEW OR NO CLOUDS BELOW 12,000 FEET WITH NO 
SIGNIFICANT WEATHER AND/OR OBSTRUCTIONS TO VISIBILITY.

WAZ507-509-555>559-181100-
SEATTLE, TACOMA, EVERETT, AND VICINITY
  
CITY           SKY/WX    TMP DP  RH WIND       PRES   REMARKS
EVERETT        CLOUDY    52  48  86 VRB5      30.27F                  
BOEING FIELD   CLOUDY    56  47  71 CALM      30.27F                  
RENTON         CLOUDY    54  48  80 E3        30.27F                  
SEATAC AIRPORT CLOUDY    54  47  77 S3        30.27F                  
JBLM-MCCHORD   CLOUDY    52  52 100 CALM        N/A                   
PUYALLUP       MOCLDY    52  48  87 CALM      30.27F                  
BREMERTON      CLOUDY    50  48  93 S3        30.27F                  
JBLM-FT LEWIS  NOT AVBL                                               
TACOMA NARROWS CLOUDY    52  48  86 CALM      30.28F                  
$$
 
WAZ001-503-506-510-514-515-181100-
NORTH INTERIOR
  
CITY           SKY/WX    TMP DP  RH WIND       PRES   REMARKS
BELLINGHAM     LGT RAIN  52  49  89 NW3       30.25F                  
FRIDAY HARBOR  CLOUDY    50  47  89 CALM      30.26F                  
EASTSOUND      CLOUDY    54  50  87 S7        30.24F                  
PORT ANGELES   CLOUDY    49  47  93 CALM      30.25F                  
EDIZ HOOK      CLOUDY    48  47  97 CALM      30.25F                  
PORT TOWNSEND  CLOUDY    48  48 100 SE5       30.24F FOG              
NAS WHIDBEY    CLOUDY    54  49  83 SE7       30.29F                  
ARLINGTON      CLOUDY    52  47  83 SE3       30.28F                  
BURLINGTON     CLOUDY    55  48  76 E6        30.26F                  
$$
 
WAZ020-022-039-040-504-511-512-181100-
SOUTHWEST INTERIOR
  
CITY           SKY/WX    TMP DP  RH WIND       PRES   REMARKS
SHELTON        CLOUDY    52  48  86 SE3       30.26F                  
OLYMPIA        CLOUDY    51  48  89 CALM      30.28F                  
CHEHALIS       CLOUDY    50  48  93 CALM      30.28F                  
KELSO          FAIR      48  46  93 CALM      30.30F                  
VANCOUVER      FAIR      49  44  83 CALM      30.29F                  
SCAPPOOSE, OR  FAIR      49  45  86 CALM      30.29F                  
PORTLAND, OR   MOCLDY    50  46  86 E3        30.29F                  
$$
 
WAZ021-516-517-181100-
WASHINGTON COAST
  
CITY           SKY/WX    TMP DP  RH WIND       PRES   REMARKS
FORKS          LGT RAIN  51  50  96 S3        30.25S FOG              
HOQUIAM        CLOUDY    51  51 100 E6        30.27F                  
ASTORIA, OR    CLOUDY    49  47  93 NE3       30.26F                  
$$
 
WAZ019-023-024-040-567>569-181100-
CASCADE MOUNTAINS AND COLUMBIA GORGE
  
CITY           SKY/WX    TMP DP  RH WIND       PRES   REMARKS
STAMPEDE PASS  MOCLDY    41  36  82 CALM      30.27F                  
TROUTDALE, OR  FAIR      48  45  89 E3        30.29F                  
HOOD RIVER, OR FAIR      45  41  87 MISG      30.29F                  
THE DALLES, OR FAIR      49  43  80 CALM      30.28F                  
$$

WAZ026-027-041>044-520-521-181100-
EAST SLOPES
  
CITY           SKY/WX    TMP DP  RH WIND       PRES   REMARKS
OMAK           CLOUDY    53  40  61 CALM      30.20R                  
WENATCHEE      FAIR      54  35  48 NW8       30.22F                  
ELLENSBURG     FAIR      52  38  58 NW15      30.24F                  
YAKIMA         FAIR      43  37  79 W8        30.25F                  
SUNNYSIDE ARPT FAIR      43  40  91 N5        30.25                   
YAKIMA TC      FAIR      45  38  76 SW3       30.23S                  
$$

WAZ028-034-035-181100-
COLUMBIA BASIN
  
CITY           SKY/WX    TMP DP  RH WIND       PRES   REMARKS
EPHRATA        FAIR      46  35  65 NW5       30.21F                  
MOSES LAKE     FAIR      46  37  71 SE7       30.23F                  
PASCO          FAIR      57  40  52 S10       30.25F                  
RICHLAND ARPT  FAIR      46  41  82 CALM      30.25                   
HERMISTON, OR  FAIR      48  40  73 SE6       30.26S                  
$$

WAZ036>038-181100-
NORTHEAST WASHINGTON
  
CITY           SKY/WX    TMP DP  RH WIND       PRES   REMARKS
SPOKANE GEIGER MOCLDY    46  37  71 S8        30.25S                  
SPOKANE FELTS  MOCLDY    48  39  71 NE3       30.26S                  
FAIRCHILD AFB  FAIR      43  43  99 S9        30.24S                  
COEURDALENE,ID FAIR      46  39  76 S9        30.26F                  
DEER PARK      CLOUDY    45  38  76 S5        30.25S                  
$$

WAZ029>033-181100-
SOUTHEAST WASHINGTON
  
CITY           SKY/WX    TMP DP  RH WIND       PRES   REMARKS
PULLMAN        FAIR      42  37  82 CALM      30.30F                  
LEWISTON, ID   FAIR      47  40  76 E3        30.30S                  
WALLA WALLA    FAIR      52  38  58 S9        30.26S                  
PENDLETON, OR  FAIR      47  40  76 S8        30.26F                  
$$